Weather History for Port Angeles, WA

Change the Weather History Date:

Friday, October 4, 2013

  Actual Average Record
Temperature  
Mean Temperature 46 °F -  
Max Temperature 53 °F 60 °F 70 °F (2001)
Min Temperature 39 °F 44 °F 36 °F (1985)
Degree Days  
Heating Degree Days 19    
Moisture  
Dew Point 45 °F    
Average Humidity 90    
Maximum Humidity 100    
Minimum Humidity 80    
Precipitation  
Precipitation 0.00 in - - ()
Sea Level Pressure  
Sea Level Pressure 30.43 in    
Wind  
Wind Speed 3 mph (SSW)    
Max Wind Speed 7 mph    
Max Gust Speed -    
Visibility 9 miles    
Events      
Averages and records for this station are not official NWS values.
T = Trace of Precipitation, MM = Missing Value Source: NWS Daily Summary

Daily Weather History Graph

Daily Weather History Graph

Search for Another Location

Airport:

Trip Planner

Search our weather history database for the weather conditions in past years. The results will help you decide how hot, cold, wet, or windy it might be!

Date:

Astronomy

Oct. 04, 2013 Rise Set
Actual Time 7:18 AM PDT 6:46 PM PDT
Civil Twilight 6:46 AM PDT 7:17 PM PDT
Nautical Twilight 6:10 AM PDT 7:53 PM PDT
Astronomical Twilight 5:34 AM PDT 8:29 PM PDT
Moon 7:00 AM PDT (10/4) 6:28 PM PDT (10/4)
Length of Visible Light 12h 30m
Length of Day
11h 28m
Waning Crescent, 0% of the Moon is Illuminated
Oct 4
Waning Crescent
Oct 4
New
Oct 11
First Quarter
Oct 18
Full
Oct 26
Last Quarter

Hourly Weather History & Observations

Time (PDT) Temp. Windchill Dew Point Humidity Pressure Visibility Wind Dir Wind Speed Gust Speed Precip Events Conditions
12:53 AM 42.1 °F - 41.0 °F 96% 30.45 in 10.0 mi Calm Calm - N/A   Clear
1:53 AM 41.0 °F 38.0 °F 39.9 °F 96% 30.47 in 9.0 mi SW 4.6 mph - N/A   Clear
2:53 AM 39.9 °F 37.8 °F 39.9 °F 100% 30.47 in 10.0 mi SSW 3.5 mph - N/A   Clear
3:32 AM 39.9 °F - 39.0 °F 97% 30.46 in 10.0 mi Calm Calm - N/A   Partly Cloudy
3:46 AM 42.1 °F 38.4 °F 39.9 °F 92% 30.46 in 10.0 mi SW 5.8 mph - N/A   Mostly Cloudy
3:53 AM 44.1 °F 40.1 °F 42.1 °F 93% 30.46 in 10.0 mi SW 6.9 mph - N/A   Overcast
4:53 AM 46.0 °F 44.8 °F 44.1 °F 93% 30.46 in 10.0 mi SSW 3.5 mph - N/A   Overcast
5:38 AM 46.0 °F 43.1 °F 45.0 °F 96% 30.44 in 1.8 mi SW 5.8 mph - N/A   Overcast
5:50 AM 46.4 °F 43.5 °F 44.6 °F 93% 30.45 in 0.8 mi WSW 5.8 mph - N/A   Overcast
5:53 AM 46.0 °F 43.1 °F 44.1 °F 93% 30.46 in 1.0 mi WSW 5.8 mph - N/A   Overcast
6:10 AM 46.0 °F 43.1 °F 45.0 °F 96% 30.45 in 1.5 mi SW 5.8 mph - N/A   Overcast
6:20 AM 46.0 °F 43.1 °F 45.0 °F 96% 30.46 in 3.0 mi WSW 5.8 mph - N/A   Overcast
6:53 AM 44.1 °F 42.5 °F 42.1 °F 93% 30.47 in 10.0 mi SSE 3.5 mph - N/A   Overcast
7:53 AM 46.9 °F - 45.0 °F 93% 30.46 in 10.0 mi South 4.6 mph - N/A   Overcast
8:53 AM 48.0 °F - 45.0 °F 89% 30.47 in 10.0 mi SW 3.5 mph - N/A   Mostly Cloudy
9:18 AM 50.0 °F - 46.0 °F 86% 30.47 in 10.0 mi Calm Calm - N/A   Scattered Clouds
9:45 AM 51.1 °F - 46.9 °F 86% 30.47 in 10.0 mi Variable 3.5 mph - N/A   Mostly Cloudy
9:53 AM 50.0 °F - 46.0 °F 86% 30.47 in 10.0 mi North 3.5 mph - N/A   Mostly Cloudy
10:05 AM 51.1 °F - 46.9 °F 86% 30.46 in 10.0 mi North 3.5 mph - N/A   Mostly Cloudy
10:40 AM 52.0 °F - 46.0 °F 80% 30.46 in 10.0 mi East 6.9 mph - N/A   Scattered Clouds
10:53 AM 52.0 °F - 46.0 °F 80% 30.46 in 10.0 mi Variable 5.8 mph - N/A   Partly Cloudy
11:21 AM 52.0 °F - 46.0 °F 80% 30.46 in 10.0 mi ENE 6.9 mph - N/A   Scattered Clouds
11:34 AM 52.0 °F - 46.0 °F 80% 30.46 in 10.0 mi Variable 4.6 mph - N/A   Mostly Cloudy
11:53 AM 51.1 °F - 46.0 °F 83% 30.47 in 10.0 mi NNE 4.6 mph - N/A   Overcast
12:53 PM 50.0 °F - 46.9 °F 89% 30.47 in 10.0 mi Calm Calm - N/A   Overcast
1:05 PM 50.0 °F - 46.9 °F 89% 30.45 in 10.0 mi Variable 3.5 mph - N/A   Overcast
1:53 PM 51.1 °F - 46.9 °F 86% 30.44 in 10.0 mi ENE 4.6 mph - N/A   Overcast
2:38 PM 52.0 °F - 48.0 °F 86% 30.42 in 10.0 mi Variable 4.6 mph - N/A   Mostly Cloudy
2:53 PM 52.0 °F - 46.9 °F 83% 30.43 in 10.0 mi NNE 4.6 mph - N/A   Scattered Clouds
3:53 PM 53.1 °F - 46.9 °F 80% 30.41 in 10.0 mi NNE 3.5 mph - N/A   Overcast
4:53 PM 51.1 °F - 48.0 °F 89% 30.40 in 10.0 mi NNE 3.5 mph - N/A   Overcast
5:53 PM 52.0 °F - 48.0 °F 86% 30.40 in 10.0 mi Calm Calm - N/A   Overcast
6:53 PM 51.1 °F - 48.0 °F 89% 30.39 in 10.0 mi Calm Calm - N/A   Overcast
7:53 PM 48.9 °F - 46.9 °F 93% 30.38 in 10.0 mi Calm Calm - N/A   Partly Cloudy
8:53 PM 48.9 °F - 46.9 °F 93% 30.36 in 10.0 mi SSE 3.5 mph - N/A   Overcast
9:53 PM 46.9 °F - 45.0 °F 93% 30.36 in 9.0 mi Calm Calm - N/A   Mostly Cloudy
10:53 PM 46.0 °F - 45.0 °F 96% 30.36 in 10.0 mi Calm Calm - N/A   Scattered Clouds
11:23 PM 46.9 °F - 45.0 °F 93% 30.36 in 10.0 mi Calm Calm - N/A   Mostly Cloudy
11:32 PM 46.9 °F - 45.0 °F 93% 30.36 in 10.0 mi Calm Calm - N/A   Mostly Cloudy
11:44 PM 46.9 °F - 45.0 °F 93% 30.36 in 10.0 mi Calm Calm - N/A   Mostly Cloudy
11:53 PM 46.9 °F - 45.0 °F 93% 30.37 in 10.0 mi Calm Calm - N/A   Overcast